F7LR EDDS-LSGG

Flight info

Callsign F7LR
Flight time 1h 23m
Altitude 10000
Route ROTWE7H ROTWE Y126 TUBLO N850 NATOR DCT LUTIX DCT BENOT
Aircraft DA42/L-SDFGRY/C

Departure

Time 2026-05-04 17:35
Airport Stuttgart Airport (EDDS)

Arrival

Time 2026-05-04 18:58
Airport Geneva International Airport (LSGG)
Time Latitude Longitude Altitude Speed Heading
2026-05-04 16:58 48.69146 9.21364 1254 ft 0 kts 164°
2026-05-04 17:01 48.69147 9.21364 1254 ft 0 kts 164°
2026-05-04 17:11 48.69147 9.21363 1254 ft 0 kts 164°
2026-05-04 17:20 48.69148 9.21363 1254 ft 0 kts 164°
2026-05-04 17:29 48.69146 9.21359 1259 ft 3 kts 305°
2026-05-04 17:29 48.69135 9.21289 1256 ft 0 kts 165°
2026-05-04 17:30 48.69080 9.21393 1253 ft 10 kts 123°
2026-05-04 17:31 48.68960 9.21457 1254 ft 7 kts 163°
2026-05-04 17:31 48.68942 9.21465 1257 ft 0 kts 164°
2026-05-04 17:33 48.68863 9.21506 1252 ft 8 kts 139°
2026-05-04 17:33 48.68865 9.21547 1251 ft 5 kts 75°
2026-05-04 17:34 48.68904 9.21754 1255 ft 51 kts 75°
2026-05-04 17:34 48.69061 9.22576 1242 ft 103 kts 74°
2026-05-04 17:35 48.69758 9.25982 2140 ft 113 kts 62°
2026-05-04 17:35 48.70294 9.28128 2875 ft 110 kts 64°
2026-05-04 17:35 48.70543 9.29234 3199 ft 111 kts 66°
2026-05-04 17:36 48.70763 9.30357 3551 ft 112 kts 70°
2026-05-04 17:36 48.70946 9.31506 3877 ft 112 kts 75°
2026-05-04 17:36 48.71086 9.32669 4244 ft 113 kts 79°
2026-05-04 17:36 48.71179 9.33850 4591 ft 114 kts 84°
2026-05-04 17:37 48.71098 9.35023 4927 ft 113 kts 118°
2026-05-04 17:37 48.70653 9.35983 5260 ft 112 kts 133°
2026-05-04 17:37 48.70178 9.36925 5585 ft 112 kts 131°
2026-05-04 17:37 48.69736 9.37896 5931 ft 112 kts 130°
2026-05-04 17:38 48.69286 9.38846 6265 ft 109 kts 142°
2026-05-04 17:38 48.68647 9.39385 6584 ft 105 kts 172°
2026-05-04 17:38 48.67936 9.39350 6894 ft 103 kts 200°
2026-05-04 17:38 48.67285 9.38901 7206 ft 104 kts 207°
2026-05-04 17:39 48.65989 9.37943 7839 ft 104 kts 206°
2026-05-04 17:39 48.65341 9.37463 8173 ft 104 kts 206°
2026-05-04 17:39 48.64704 9.36937 8508 ft 104 kts 217°
2026-05-04 17:40 48.64254 9.36075 8841 ft 107 kts 242°
2026-05-04 17:40 48.63980 9.34952 8971 ft 124 kts 246°
2026-05-04 17:40 48.63945 9.34805 8969 ft 126 kts 246°
2026-05-04 17:40 48.63704 9.33790 8975 ft 136 kts 246°
2026-05-04 17:41 48.63379 9.32409 8977 ft 146 kts 246°
2026-05-04 17:41 48.63032 9.30931 8977 ft 152 kts 246°
2026-05-04 17:41 48.62672 9.29406 8976 ft 156 kts 246°
2026-05-04 17:41 48.62301 9.27842 8974 ft 159 kts 246°
2026-05-04 17:42 48.61924 9.26259 8974 ft 161 kts 245°
2026-05-04 17:42 48.61407 9.24768 8978 ft 160 kts 237°
2026-05-04 17:42 48.61038 9.23803 8968 ft 160 kts 237°
2026-05-04 17:42 48.60480 9.22347 8977 ft 160 kts 236°
2026-05-04 17:43 48.59921 9.20886 8971 ft 161 kts 236°
2026-05-04 17:43 48.59362 9.19423 8971 ft 161 kts 236°
2026-05-04 17:43 48.58802 9.17959 8969 ft 161 kts 236°
2026-05-04 17:43 48.58245 9.16501 8978 ft 160 kts 236°
2026-05-04 17:44 48.57686 9.15040 8974 ft 161 kts 236°
2026-05-04 17:44 48.57127 9.13579 8974 ft 161 kts 236°
2026-05-04 17:44 48.56568 9.12118 8978 ft 161 kts 236°
2026-05-04 17:44 48.56008 9.10656 8978 ft 161 kts 236°
2026-05-04 17:45 48.55446 9.09191 8977 ft 161 kts 236°
2026-05-04 17:45 48.54885 9.07730 8986 ft 160 kts 236°
2026-05-04 17:45 48.54328 9.06278 8981 ft 160 kts 236°
2026-05-04 17:45 48.53766 9.04817 8981 ft 161 kts 236°
2026-05-04 17:46 48.53203 9.03351 8973 ft 162 kts 236°
2026-05-04 17:46 48.52640 9.01883 8978 ft 162 kts 236°
2026-05-04 17:46 48.52074 9.00411 8979 ft 162 kts 236°
2026-05-04 17:46 48.51509 8.98943 8976 ft 162 kts 236°
2026-05-04 17:47 48.50950 8.97492 8979 ft 161 kts 236°
2026-05-04 17:47 48.50386 8.96028 8984 ft 161 kts 236°
2026-05-04 17:47 48.49821 8.94563 8985 ft 162 kts 236°
2026-05-04 17:47 48.49256 8.93099 8985 ft 161 kts 236°
2026-05-04 17:48 48.48690 8.91634 8985 ft 161 kts 236°
2026-05-04 17:48 48.48125 8.90170 8988 ft 161 kts 236°
2026-05-04 17:48 48.47561 8.88708 8988 ft 161 kts 236°
2026-05-04 17:48 48.46997 8.87249 8987 ft 161 kts 236°
2026-05-04 17:49 48.46433 8.85792 8993 ft 161 kts 236°
2026-05-04 17:49 48.45870 8.84335 9008 ft 159 kts 236°
2026-05-04 17:49 48.45337 8.82960 9416 ft 140 kts 234°
2026-05-04 17:49 48.44884 8.81797 9961 ft 122 kts 233°
2026-05-04 17:50 48.44423 8.80620 9989 ft 136 kts 234°
2026-05-04 17:50 48.43930 8.79341 9993 ft 144 kts 234°
2026-05-04 17:50 48.43417 8.78009 9995 ft 150 kts 235°
2026-05-04 17:50 48.42883 8.76626 9996 ft 155 kts 235°
2026-05-04 17:51 48.42345 8.75235 10002 ft 157 kts 235°
2026-05-04 17:51 48.41787 8.73795 10002 ft 159 kts 235°
2026-05-04 17:51 48.41224 8.72350 9999 ft 160 kts 235°
2026-05-04 17:51 48.40659 8.70900 10001 ft 161 kts 235°
2026-05-04 17:52 48.40092 8.69444 10007 ft 161 kts 235°
2026-05-04 17:52 48.39522 8.67982 10003 ft 162 kts 235°
2026-05-04 17:52 48.38954 8.66523 10007 ft 162 kts 235°
2026-05-04 17:52 48.38384 8.65064 10008 ft 162 kts 234°
2026-05-04 17:53 48.37701 8.63779 10001 ft 158 kts 221°
2026-05-04 17:53 48.36921 8.62580 10008 ft 158 kts 221°
2026-05-04 17:53 48.36149 8.61394 10007 ft 159 kts 221°
2026-05-04 17:53 48.35369 8.60208 10006 ft 160 kts 218°
2026-05-04 17:54 48.34572 8.59045 10003 ft 159 kts 219°
2026-05-04 17:54 48.33794 8.57854 9999 ft 159 kts 220°
2026-05-04 17:54 48.33027 8.56654 9999 ft 159 kts 221°
2026-05-04 17:54 48.32259 8.55454 9999 ft 159 kts 221°
2026-05-04 17:55 48.31499 8.54276 10004 ft 159 kts 221°
2026-05-04 17:55 48.30728 8.53085 10001 ft 159 kts 221°
2026-05-04 17:55 48.29954 8.51896 10004 ft 159 kts 221°
2026-05-04 17:55 48.29178 8.50705 10007 ft 159 kts 221°
2026-05-04 17:56 48.28402 8.49517 10007 ft 159 kts 221°
2026-05-04 17:56 48.27624 8.48327 10008 ft 160 kts 221°
2026-05-04 17:56 48.26848 8.47138 10009 ft 160 kts 221°
2026-05-04 17:56 48.26068 8.45947 10008 ft 160 kts 221°
2026-05-04 17:57 48.25298 8.44739 10011 ft 160 kts 223°
2026-05-04 17:57 48.24521 8.43535 10008 ft 161 kts 222°
2026-05-04 17:57 48.23734 8.42344 10011 ft 161 kts 221°
2026-05-04 17:57 48.22944 8.41156 10012 ft 161 kts 221°
2026-05-04 17:58 48.22166 8.39981 10010 ft 161 kts 221°
2026-05-04 17:58 48.21372 8.38775 10014 ft 160 kts 221°
2026-05-04 17:58 48.20607 8.37604 10009 ft 158 kts 221°
2026-05-04 17:58 48.19833 8.36436 10013 ft 158 kts 220°
2026-05-04 17:59 48.19057 8.35261 10018 ft 159 kts 221°
2026-05-04 17:59 48.18276 8.34072 10011 ft 160 kts 221°
2026-05-04 17:59 48.16652 8.31791 10009 ft 159 kts 209°
2026-05-04 18:00 48.15725 8.30891 10010 ft 159 kts 209°
2026-05-04 18:00 48.14797 8.29994 10010 ft 158 kts 209°
2026-05-04 18:00 48.13874 8.29101 10012 ft 158 kts 209°
2026-05-04 18:00 48.12949 8.28208 10013 ft 158 kts 208°
2026-05-04 18:01 48.12027 8.27319 10013 ft 158 kts 209°
2026-05-04 18:01 48.11105 8.26429 10013 ft 157 kts 209°
2026-05-04 18:01 48.10188 8.25543 10014 ft 157 kts 209°
2026-05-04 18:02 48.08362 8.23782 10018 ft 156 kts 209°
2026-05-04 18:02 48.07447 8.22898 10020 ft 157 kts 209°
2026-05-04 18:02 48.06527 8.22013 10017 ft 157 kts 209°
2026-05-04 18:02 48.05614 8.21133 10020 ft 157 kts 209°
2026-05-04 18:03 48.04703 8.20256 10020 ft 158 kts 209°
2026-05-04 18:03 48.03777 8.19366 10020 ft 158 kts 209°
2026-05-04 18:03 48.02856 8.18479 10017 ft 157 kts 209°
2026-05-04 18:03 48.01935 8.17593 10020 ft 157 kts 209°
2026-05-04 18:04 48.01011 8.16705 10020 ft 158 kts 209°
2026-05-04 18:04 48.00090 8.15820 10024 ft 157 kts 210°
2026-05-04 18:04 47.98251 8.14054 10024 ft 157 kts 209°
2026-05-04 18:05 47.97332 8.13172 10024 ft 157 kts 210°
2026-05-04 18:05 47.96409 8.12287 10022 ft 157 kts 210°
2026-05-04 18:05 47.95489 8.11405 10022 ft 157 kts 210°
2026-05-04 18:05 47.94569 8.10525 10023 ft 157 kts 210°
2026-05-04 18:06 47.92724 8.08758 10027 ft 158 kts 210°
2026-05-04 18:06 47.91795 8.07868 10027 ft 159 kts 210°
2026-05-04 18:06 47.90859 8.06972 10019 ft 160 kts 211°
2026-05-04 18:07 47.89925 8.06077 10018 ft 159 kts 210°
2026-05-04 18:07 47.88993 8.05188 10019 ft 159 kts 210°
2026-05-04 18:07 47.88061 8.04298 10020 ft 159 kts 210°
2026-05-04 18:07 47.87146 8.03425 10021 ft 158 kts 210°
2026-05-04 18:08 47.86210 8.02531 10015 ft 157 kts 210°
2026-05-04 18:08 47.85299 8.01663 10015 ft 158 kts 210°
2026-05-04 18:08 47.84384 8.00789 10018 ft 156 kts 210°
2026-05-04 18:08 47.83470 7.99916 10021 ft 155 kts 210°
2026-05-04 18:09 47.81641 7.98175 10025 ft 156 kts 210°
2026-05-04 18:09 47.79820 7.96440 10023 ft 155 kts 210°
2026-05-04 18:10 47.78904 7.95571 10022 ft 157 kts 210°
2026-05-04 18:10 47.77993 7.94705 10024 ft 154 kts 210°
2026-05-04 18:10 47.77088 7.93844 10021 ft 153 kts 211°
2026-05-04 18:10 47.76185 7.92986 10027 ft 156 kts 210°
2026-05-04 18:11 47.75272 7.92120 10023 ft 156 kts 210°
2026-05-04 18:11 47.74361 7.91253 10021 ft 155 kts 210°
2026-05-04 18:11 47.73463 7.90401 10020 ft 156 kts 210°
2026-05-04 18:11 47.72547 7.89532 10021 ft 157 kts 210°
2026-05-04 18:12 47.71621 7.88662 10020 ft 157 kts 209°
2026-05-04 18:12 47.70693 7.87809 10018 ft 156 kts 208°
2026-05-04 18:12 47.69778 7.86954 10012 ft 155 kts 210°
2026-05-04 18:12 47.68873 7.86089 10011 ft 155 kts 210°
2026-05-04 18:13 47.67962 7.85214 10009 ft 157 kts 210°
2026-05-04 18:13 47.67045 7.84336 10010 ft 157 kts 210°
2026-05-04 18:13 47.65220 7.82558 10006 ft 156 kts 211°
2026-05-04 18:14 47.64302 7.81699 10000 ft 156 kts 211°
2026-05-04 18:14 47.63398 7.80855 10006 ft 156 kts 211°
2026-05-04 18:14 47.62482 7.79999 9997 ft 155 kts 211°
2026-05-04 18:15 47.60645 7.78273 9998 ft 156 kts 211°
2026-05-04 18:15 47.58808 7.76544 9998 ft 156 kts 211°
2026-05-04 18:15 47.57890 7.75678 10002 ft 157 kts 211°
2026-05-04 18:16 47.56970 7.74811 10000 ft 157 kts 211°
2026-05-04 18:16 47.56050 7.73946 9996 ft 156 kts 211°
2026-05-04 18:16 47.55133 7.73083 9998 ft 156 kts 211°
2026-05-04 18:17 47.53317 7.71375 9996 ft 155 kts 211°
2026-05-04 18:17 47.52406 7.70519 9993 ft 155 kts 211°
2026-05-04 18:17 47.50589 7.68812 9998 ft 155 kts 211°
2026-05-04 18:18 47.49682 7.67961 9993 ft 154 kts 211°
2026-05-04 18:18 47.48772 7.67108 9995 ft 155 kts 211°
2026-05-04 18:18 47.47863 7.66256 9995 ft 154 kts 211°
2026-05-04 18:18 47.46959 7.65408 9998 ft 154 kts 211°
2026-05-04 18:19 47.45144 7.63708 9992 ft 154 kts 211°
2026-05-04 18:19 47.44237 7.62859 9998 ft 154 kts 212°
2026-05-04 18:19 47.43334 7.62013 10005 ft 154 kts 211°
2026-05-04 18:20 47.42437 7.61175 9999 ft 154 kts 212°
2026-05-04 18:20 47.41523 7.60319 10000 ft 154 kts 212°
2026-05-04 18:20 47.40630 7.59485 10003 ft 154 kts 212°
2026-05-04 18:20 47.39726 7.58640 9999 ft 154 kts 212°
2026-05-04 18:21 47.38823 7.57797 9997 ft 153 kts 212°
2026-05-04 18:21 47.37919 7.56954 9998 ft 154 kts 212°
2026-05-04 18:21 47.37014 7.56109 10021 ft 154 kts 212°
2026-05-04 18:21 47.36106 7.55261 10011 ft 154 kts 212°
2026-05-04 18:22 47.35208 7.54421 10018 ft 152 kts 212°
2026-05-04 18:22 47.34315 7.53590 10026 ft 152 kts 212°
2026-05-04 18:22 47.33413 7.52751 10025 ft 154 kts 212°
2026-05-04 18:22 47.32514 7.51912 10023 ft 150 kts 212°
2026-05-04 18:23 47.31635 7.51095 10031 ft 149 kts 212°
2026-05-04 18:23 47.30751 7.50273 10028 ft 151 kts 212°
2026-05-04 18:23 47.29869 7.49453 10026 ft 152 kts 212°
2026-05-04 18:23 47.28968 7.48616 10022 ft 150 kts 212°
2026-05-04 18:24 47.28093 7.47803 10027 ft 149 kts 212°
2026-05-04 18:24 47.27216 7.46986 10026 ft 150 kts 212°
2026-05-04 18:24 47.26326 7.46159 10026 ft 152 kts 212°
2026-05-04 18:24 47.25441 7.45339 10023 ft 152 kts 212°
2026-05-04 18:25 47.24549 7.44513 10026 ft 150 kts 212°
2026-05-04 18:25 47.23662 7.43689 10029 ft 151 kts 212°
2026-05-04 18:25 47.22764 7.42855 10028 ft 153 kts 212°
2026-05-04 18:25 47.21861 7.42018 10027 ft 154 kts 212°
2026-05-04 18:26 47.20954 7.41179 10025 ft 154 kts 212°
2026-05-04 18:26 47.20047 7.40339 10026 ft 154 kts 212°
2026-05-04 18:26 47.19437 7.39774 10026 ft 154 kts 212°
2026-05-04 18:26 47.18545 7.38949 10025 ft 153 kts 212°
2026-05-04 18:27 47.17646 7.38117 10025 ft 152 kts 212°
2026-05-04 18:27 47.16755 7.37272 10026 ft 152 kts 216°
2026-05-04 18:27 47.16017 7.36163 10024 ft 152 kts 229°
2026-05-04 18:27 47.15358 7.34947 10024 ft 152 kts 229°
2026-05-04 18:28 47.14699 7.33729 10025 ft 152 kts 229°
2026-05-04 18:28 47.14042 7.32516 10030 ft 152 kts 229°
2026-05-04 18:28 47.13385 7.31302 10030 ft 152 kts 229°
2026-05-04 18:28 47.12727 7.30087 10028 ft 152 kts 229°
2026-05-04 18:29 47.12067 7.28871 10028 ft 152 kts 229°
2026-05-04 18:29 47.11409 7.27657 10028 ft 152 kts 229°
2026-05-04 18:29 47.10760 7.26461 10029 ft 152 kts 230°
2026-05-04 18:29 47.10100 7.25245 10032 ft 152 kts 229°
2026-05-04 18:30 47.08776 7.22810 10030 ft 152 kts 229°
2026-05-04 18:30 47.08118 7.21598 10030 ft 152 kts 229°
2026-05-04 18:30 47.07458 7.20385 10029 ft 152 kts 229°
2026-05-04 18:31 47.06796 7.19168 10030 ft 153 kts 229°
2026-05-04 18:31 47.06132 7.17949 10032 ft 153 kts 229°
2026-05-04 18:31 47.05470 7.16734 10030 ft 152 kts 229°
2026-05-04 18:31 47.04809 7.15522 10030 ft 152 kts 229°
2026-05-04 18:32 47.04149 7.14311 10033 ft 152 kts 229°
2026-05-04 18:32 47.03488 7.13098 10034 ft 152 kts 229°
2026-05-04 18:32 47.02826 7.11884 10031 ft 153 kts 229°
2026-05-04 18:32 47.02163 7.10671 10032 ft 152 kts 229°
2026-05-04 18:33 47.01502 7.09461 10034 ft 152 kts 229°
2026-05-04 18:33 47.00838 7.08245 10029 ft 153 kts 229°
2026-05-04 18:33 47.00171 7.07024 10031 ft 153 kts 229°
2026-05-04 18:33 46.99505 7.05807 10032 ft 153 kts 229°
2026-05-04 18:34 46.98836 7.04585 10031 ft 153 kts 229°
2026-05-04 18:34 46.98171 7.03370 10031 ft 153 kts 230°
2026-05-04 18:34 46.97515 7.02171 10031 ft 153 kts 229°
2026-05-04 18:34 46.96849 7.00956 10031 ft 153 kts 229°
2026-05-04 18:35 46.96183 6.99741 10030 ft 153 kts 230°
2026-05-04 18:35 46.95517 6.98528 10030 ft 153 kts 230°
2026-05-04 18:35 46.94850 6.97312 10032 ft 153 kts 229°
2026-05-04 18:35 46.94183 6.96097 10032 ft 153 kts 230°
2026-05-04 18:36 46.93514 6.94878 10032 ft 153 kts 230°
2026-05-04 18:36 46.92846 6.93662 10032 ft 153 kts 230°
2026-05-04 18:36 46.92177 6.92445 10018 ft 154 kts 230°
2026-05-04 18:36 46.91507 6.91225 10031 ft 154 kts 230°
2026-05-04 18:37 46.90833 6.90000 10028 ft 154 kts 230°
2026-05-04 18:37 46.90167 6.88790 10028 ft 154 kts 230°
2026-05-04 18:37 46.89495 6.87569 10030 ft 154 kts 230°
2026-05-04 18:37 46.88820 6.86344 10030 ft 155 kts 230°
2026-05-04 18:38 46.88145 6.85121 10030 ft 155 kts 230°
2026-05-04 18:38 46.87470 6.83896 10031 ft 155 kts 230°
2026-05-04 18:38 46.86794 6.82670 10031 ft 155 kts 230°
2026-05-04 18:38 46.86119 6.81448 10033 ft 155 kts 230°
2026-05-04 18:39 46.85442 6.80222 10029 ft 155 kts 230°
2026-05-04 18:39 46.84765 6.78995 10027 ft 155 kts 231°
2026-05-04 18:39 46.84086 6.77768 10030 ft 155 kts 230°
2026-05-04 18:39 46.83406 6.76539 10029 ft 155 kts 231°
2026-05-04 18:40 46.82725 6.75307 10024 ft 156 kts 231°
2026-05-04 18:40 46.82043 6.74072 10032 ft 156 kts 231°
2026-05-04 18:40 46.81359 6.72837 10027 ft 157 kts 231°
2026-05-04 18:40 46.80683 6.71618 10031 ft 157 kts 231°
2026-05-04 18:41 46.79998 6.70382 10025 ft 157 kts 231°
2026-05-04 18:41 46.79310 6.69142 10030 ft 157 kts 231°
2026-05-04 18:41 46.78622 6.67901 10032 ft 157 kts 231°
2026-05-04 18:41 46.77932 6.66657 10033 ft 158 kts 231°
2026-05-04 18:42 46.77241 6.65412 10032 ft 158 kts 231°
2026-05-04 18:42 46.76548 6.64165 10031 ft 158 kts 231°
2026-05-04 18:42 46.75855 6.62918 10031 ft 158 kts 231°
2026-05-04 18:42 46.75164 6.61674 10033 ft 158 kts 231°
2026-05-04 18:43 46.74467 6.60421 10034 ft 158 kts 231°
2026-05-04 18:43 46.73773 6.59173 10036 ft 158 kts 231°
2026-05-04 18:43 46.73070 6.57959 10030 ft 159 kts 225°
2026-05-04 18:43 46.72139 6.57054 10025 ft 160 kts 205°
2026-05-04 18:44 46.71096 6.56527 10031 ft 161 kts 201°
2026-05-04 18:44 46.70379 6.56179 10032 ft 161 kts 200°
2026-05-04 18:44 46.68972 6.55497 10030 ft 161 kts 200°
2026-05-04 18:44 46.67907 6.54981 10033 ft 161 kts 200°
2026-05-04 18:45 46.66843 6.54464 10029 ft 161 kts 200°
2026-05-04 18:45 46.65777 6.53947 10031 ft 161 kts 200°
2026-05-04 18:45 46.64711 6.53431 10027 ft 161 kts 200°
2026-05-04 18:45 46.63647 6.52914 10032 ft 161 kts 200°
2026-05-04 18:46 46.62587 6.52400 10021 ft 161 kts 201°
2026-05-04 18:46 46.61526 6.51875 10028 ft 161 kts 201°
2026-05-04 18:46 46.60465 6.51358 10033 ft 161 kts 201°
2026-05-04 18:46 46.59402 6.50847 9930 ft 162 kts 201°
2026-05-04 18:47 46.58330 6.50323 9715 ft 162 kts 201°
2026-05-04 18:47 46.57265 6.49807 9530 ft 161 kts 200°
2026-05-04 18:47 46.56212 6.49300 9318 ft 160 kts 200°
2026-05-04 18:47 46.55166 6.48795 9063 ft 157 kts 200°
2026-05-04 18:48 46.54135 6.48300 8810 ft 155 kts 200°
2026-05-04 18:48 46.53130 6.47818 8562 ft 153 kts 200°
2026-05-04 18:48 46.52124 6.47333 8311 ft 151 kts 199°
2026-05-04 18:48 46.51129 6.46855 8064 ft 149 kts 199°
2026-05-04 18:49 46.50149 6.46384 7794 ft 149 kts 199°
2026-05-04 18:49 46.49175 6.45915 7553 ft 146 kts 199°
2026-05-04 18:49 46.48220 6.45456 7316 ft 143 kts 199°
2026-05-04 18:49 46.47285 6.44993 7078 ft 141 kts 203°
2026-05-04 18:50 46.46480 6.44228 6897 ft 136 kts 221°
2026-05-04 18:50 46.45830 6.43281 6752 ft 130 kts 223°
2026-05-04 18:50 46.45201 6.42366 6610 ft 128 kts 222°
2026-05-04 18:50 46.44560 6.41434 6463 ft 133 kts 222°
2026-05-04 18:51 46.43892 6.40482 6308 ft 136 kts 221°
2026-05-04 18:51 46.43208 6.39520 6150 ft 138 kts 221°
2026-05-04 18:51 46.42531 6.38528 5996 ft 139 kts 223°
2026-05-04 18:51 46.41856 6.37528 5834 ft 139 kts 223°
2026-05-04 18:52 46.41178 6.36524 5677 ft 140 kts 223°
2026-05-04 18:52 46.40496 6.35517 5524 ft 140 kts 223°
2026-05-04 18:52 46.39813 6.34504 5367 ft 140 kts 223°
2026-05-04 18:52 46.39138 6.33508 5210 ft 140 kts 223°
2026-05-04 18:53 46.38454 6.32494 5052 ft 141 kts 223°
2026-05-04 18:53 46.37782 6.31502 4980 ft 136 kts 223°
2026-05-04 18:53 46.37115 6.30514 4811 ft 139 kts 223°
2026-05-04 18:53 46.36431 6.29506 4621 ft 141 kts 223°
2026-05-04 18:54 46.35738 6.28479 4429 ft 143 kts 223°
2026-05-04 18:54 46.35034 6.27443 4233 ft 145 kts 223°
2026-05-04 18:54 46.34325 6.26393 4034 ft 146 kts 223°
2026-05-04 18:54 46.33619 6.25349 3842 ft 144 kts 224°
2026-05-04 18:55 46.32918 6.24316 3650 ft 143 kts 224°
2026-05-04 18:55 46.31529 6.22268 3274 ft 142 kts 224°
2026-05-04 18:55 46.30836 6.21247 3079 ft 142 kts 224°
2026-05-04 18:56 46.30175 6.20272 2883 ft 130 kts 225°
2026-05-04 18:56 46.29563 6.19369 2699 ft 123 kts 225°
2026-05-04 18:56 46.28976 6.18504 2519 ft 119 kts 226°
2026-05-04 18:56 46.28404 6.17663 2348 ft 116 kts 226°
2026-05-04 18:57 46.27846 6.16839 2183 ft 113 kts 226°
2026-05-04 18:57 46.27297 6.16032 2031 ft 112 kts 227°
2026-05-04 18:57 46.26758 6.15236 1880 ft 110 kts 225°
2026-05-04 18:57 46.26226 6.14469 1733 ft 106 kts 226°
2026-05-04 18:58 46.25716 6.13727 1613 ft 103 kts 226°
2026-05-04 18:58 46.25223 6.12985 1478 ft 98 kts 226°
2026-05-04 18:58 46.24780 6.12334 1371 ft 84 kts 226°
2026-05-04 18:58 46.24460 6.11853 1366 ft 48 kts 225°
2026-05-04 18:59 46.24265 6.11571 1368 ft 36 kts 225°
2026-05-04 18:59 46.24081 6.11300 1371 ft 39 kts 226°
2026-05-04 18:59 46.23929 6.11058 1375 ft 27 kts 228°
2026-05-04 18:59 46.23897 6.10914 1376 ft 12 kts 312°
2026-05-04 19:00 46.23932 6.10864 1378 ft 5 kts 314°
2026-05-04 19:00 46.23939 6.10853 1379 ft 0 kts 322°
2026-05-04 19:00 46.23940 6.10852 1379 ft 2 kts 320°
2026-05-04 19:01 46.23973 6.10807 1380 ft 7 kts 315°
2026-05-04 19:01 46.24014 6.10747 1380 ft 10 kts 315°
2026-05-04 19:01 46.24036 6.10677 1385 ft 7 kts 234°
2026-05-04 19:01 46.24005 6.10631 1386 ft 6 kts 224°
2026-05-04 19:02 46.23974 6.10586 1387 ft 8 kts 225°
2026-05-04 19:02 46.23924 6.10513 1385 ft 12 kts 226°
2026-05-04 19:02 46.23858 6.10417 1385 ft 17 kts 225°
2026-05-04 19:02 46.23771 6.10288 1382 ft 17 kts 226°
2026-05-04 19:03 46.23697 6.10178 1387 ft 12 kts 225°
2026-05-04 19:03 46.23691 6.10126 1396 ft 5 kts 312°
2026-05-04 19:03 46.23725 6.10062 1393 ft 9 kts 317°
2026-05-04 19:03 46.23764 6.10051 1397 ft 2 kts 307°
2026-05-04 19:04 46.23764 6.10048 1397 ft 0 kts 244°